Regional Weather Roundup
Issued by NWS Midland/Odessa, TX

Skip options and go directly to product.
Home | Oldest Version | Previous Version | Current Version | All | Graphics & Text | Save Text | Print | Product List | Glossary On

Skip product version selection by date and time.   
447
ASUS44 KMAF 240702
RWRMAF
MIDLAND AREA WEATHER ROUNDUP
NATIONAL WEATHER SERVICE MIDLAND TX
200 AM CDT THU APR 24 2014

...IN SOUTHWEST TEXAS AND SOUTHEAST NEW MEXICO...

CITY           SKY/WX    TMP DP  RH WIND       PRES   REMARKS
ALPINE         CLEAR     70  20  15 W9        29.96R
ANDREWS        FAIR      69  55  60 SW14      29.77R
ARTESIA        CLEAR     64  18  16 NW15      29.83R
BIG SPRING     CLEAR     74  56  54 S12       29.76R
CARLSBAD       CLEAR     62  29  28 W12       29.80R
DRYDEN           N/A     72  56  57 N7        29.73R
FORT STOCKTON  CLEAR     65  54  67 S9        29.80R
GUAD PASS      CLEAR     64  20  18 W39G47    29.90S
HOBBS          PTCLDY    64  21  19 W15       29.80S
MARFA          CLEAR     63  18  17 NW12      29.96R
MIDLAND AIRPK  CLEAR     74  56  52 S12       29.76R
MIDLAND INTL   CLEAR     71  56  58 S13       29.76R
ODESSA           N/A    N/A N/A N/A MISG      29.77R
PECOS          CLEAR     66  33  29 W14       29.77R
PRESIDIO       FAIR      79  22  12 NW10G17   29.82R
SEMINOLE       CLEAR     67  22  18 W10       29.77R
SNYDER         CLEAR     69  58  67 SE10      29.73S
WINK           CLEAR     65  29  25 W9        29.75R
$$
...OTHER STATIONS IN TEXAS...

CITY           SKY/WX    TMP DP  RH WIND       PRES   REMARKS
ABILENE        CLEAR     71  60  68 S20       29.70F
AMARILLO       CLEAR     66  24  20 W14       29.72R
AUSTIN         CLOUDY    68  63  84 S8G18     29.79S
BROWNSVILLE    CLOUDY    73  69  87 S14       29.82F
CORPUS CHRISTI PTCLDY    72  67  84 S16       29.80F
DALLAS FTW     MOCLDY    72  62  71 S17G28    29.74F
DEL RIO        CLEAR     71  63  75 E7        29.73F
EL PASO        PTCLDY    71  14  11 NW14G22   29.91R
HOUSTON INT    MOCLDY    70  65  84 S12G22    29.86S
LUBBOCK        CLEAR     67  24  19 NW17      29.72S
SAN ANGELO     CLEAR     71  56  58 SE5       29.74S
SAN ANTONIO    MOCLDY    69  62  78 S10       29.80S
WACO           CLOUDY    69  61  75 S18G28    29.78S
WICHITA FALLS  NOT AVBL
$$
...OTHER LOCATIONS IN NEW MEXICO...

CITY           SKY/WX    TMP DP  RH WIND       PRES   REMARKS
ALAMAGORDO     CLEAR     57  16  19 NE8       29.94R
ALBUQUERQUE    CLEAR     53  12  19 N8        29.98R
CANNON AFB     PTCLDY    64  20  19 W12       29.82R
CLOVIS         PTCLDY    64  19  17 W17G23    29.85R
HOLLOMAN AFB   NOT AVBL
ROSWELL        CLEAR     68  17  14 NW14      29.83R
RUIDOSO        CLEAR     54   9  16 NW17G26   30.02R
SANTA FE       CLEAR     48   7  18 N16G26    29.97R
TRUTH OR CONSE CLEAR     55  13  18 N3        29.96R
TUCUMCARI      PTCLDY    62  20  19 W15       29.77R
$$

USA.gov is the U.S. government's official web portal to all federal, state and local government web resources and services.